Skip Page Navigation
NASA JPL Caltech
NASA Logo - Jet Propulsion Laboratory + View the NASA Portal
+ Center for Near-Earth Object Studies
JPL Home Earth Solar System Stars & Galaxies Technology
JPL Solar System Dynamics
BODIES ORBITS EPHEMERIDES TOOLS PHYSICAL DATA DISCOVERY FAQ SITE MAP
JPL Small-Body Database Browser
Search: [ help ]  
152192 (2005 QL60)
Classification: Main-belt Asteroid          SPK-ID: 2152192
Ephemeris | Orbit Diagram | Orbital Elements | Mission Design | Physical Parameters | Discovery Circumstances ]

[ show orbit diagram ]
Orbital Elements at Epoch 2459200.5 (2020-Dec-17.0) TDB
Reference: JPL 19 (heliocentric ecliptic J2000)
 Element Value Uncertainty (1-sigma)   Units 
e .2135702522357276 5.3849e-08  
a 2.735917675124154 1.6319e-08 au
q 2.151607047151703 1.4437e-07 au
i 13.41899258201892 7.4616e-06 deg
node 328.1578538860486 1.6462e-05 deg
peri 56.03752809892832 2.5785e-05 deg
M 109.6866294773078 1.7145e-05 deg
tp 2458696.878624058493
(2019-Aug-01.37862406)
7.7341e-05 TDB
period 1652.924300827852
4.53
1.4789e-05
4.049e-08
d
yr
n .2177958178845197 1.9486e-09 deg/d
Q 3.320228303096605 1.9804e-08 au
  Orbit Determination Parameters
   # obs. used (total)      395  
   data-arc span      8917 days (24.41 yr)  
   first obs. used      1996-11-09  
   last obs. used      2021-04-09  
   planetary ephem.      DE441  
   SB-pert. ephem.      SB441-N16  
   condition code      0  
   norm. resid. RMS      .5509  
   source      ORB  
   producer      Otto Matic  
   solution date      2021-May-04 09:41:22  

Additional Information
 Earth MOID = 1.18288 au 
 Jupiter MOID = 2.29436 au 
 T_jup = 3.280 
[ hide covariance matrix ]
Orbital Elements at Epoch 2457211.5 (2015-Jul-08.0) TDB
Reference: JPL 19 (heliocentric ecliptic J2000)
 Element Value Uncertainty (1-sigma)   Units 
e .2123673721053767 5.5056e-08  
q 2.154314769488564 1.4828e-07 au
tp 2457038.137036933692
(2015-Jan-15.63703693)
7.5045e-05 TDB
node 328.4155361739629 1.6385e-05 deg
peri 54.85495115927226 2.59e-05 deg
i 13.45615842010934 7.4738e-06 deg
  Orbit Determination Parameters
   # obs. used (total)      395  
   data-arc span      8917 days (24.41 yr)  
   first obs. used      1996-11-09  
   last obs. used      2021-04-09  
   planetary ephem.      DE441  
   SB-pert. ephem.      SB441-N16  
   condition code      0  
   norm. resid. RMS      .5509  
   source      ORB  
   producer      Otto Matic  
   solution date      2021-May-04 09:41:22  

Additional Information
 Jupiter MOID = 2.29436 au 
 T_jup = 3.280 
Orbit Covariance (6×6)
  e q tp node peri i
e 3.031202681431339E-15 -8.13433535080907E-15 -2.667232644247974E-12 4.066150587481556E-14 -7.610143058459245E-13 -8.830961846168136E-15
q -8.13433535080907E-15 2.198694707495418E-14 7.452913917382092E-12 -1.116734818984404E-13 2.113337060931009E-12 2.379763752422144E-14
tp -2.667232644247974E-12 7.452913917382092E-12 5.631732584770839E-9 -6.529560744318446E-11 1.512137647367067E-9 5.426204302963699E-12
node 4.066150587481556E-14 -1.116734818984404E-13 -6.529560744318446E-11 2.684608956644911E-10 -2.774255139953723E-10 1.526306273184766E-11
peri -7.610143058459245E-13 2.113337060931009E-12 1.512137647367067E-9 -2.774255139953723E-10 6.708288050484463E-10 -1.347500339618689E-11
i -8.830961846168136E-15 2.379763752422144E-14 5.426204302963699E-12 1.526306273184766E-11 -1.347500339618689E-11 5.58573639373511E-11

Ephemeris | Orbit Diagram | Orbital Elements | Mission Design | Physical Parameters | Discovery Circumstances ]

Physical Parameter Table
Parameter Symbol Value Units Sigma Reference Notes
absolute magnitude H 16.08   n/a MPCxxxxx  

152192 (2005 QL60)          Discovered 2005-Aug-26 by LONEOS at Anderson Mesa
Reference: 20070303/Numbers.arcLast Updated: 2007-03-07
Ephemeris | Orbit Diagram | Orbital Elements | Mission Design | Physical Parameters | Discovery Circumstances ]
ABOUT SSD CREDITS/AWARDS PRIVACY/COPYRIGHT GLOSSARY LINKS
FirstGov 2021-May-15 17:56 UT
(server date/time)  
NASA Home Page
Site Manager:   Ryan S. Park
Webmaster  Alan B. Chamberlin